Weather in Mursalimkino

Russia / Republic of Bashkortostan     55°02′15″N   58°33′30″E
temp.,
°C
wind,
m/s
gust,
m/s
humid.,
%
clouds,
%
prec.,
mm/h
press.,
hPa
HPBL,
m
7 march, sun
sun723:00−13sw129799 0.4 101321
02:00−13s1196100 0.1 101320
05:00−15se1196100 0.1 101220
08:00−14s1195100 0.1 101120
11:00−10wnw1389100 0.1 1010478
14:00−10nw3486100 0.3 1008786
17:00−10nw3491100 0.6 1008582
20:00−14w3896100 0.5 1010361
8 march, mon
mon823:00−18sw2399100 0.6 101166
02:00−19ssw2397100 0.0 101171
05:00−19s239368 0.1 101133
08:00−15sse2391100 0.0 1008126
11:00−9s41182100 0.0 1005887
14:00−7sw71385100 0.1 10021200
17:00−5sw71682100 0.3 10021450
20:00−7sw5158895 0.4 10031421
9 march, tue
tue923:00−9sw5148797 0.5 10051107
02:00−10sw4149118 0.0 1006674
05:00−13s339312 0.0 100666
08:00−12sse229261 0.0 100530
11:00−4s4119173 0.3 1003834
14:00−4wsw71386100 1.9 10031165
17:00−7wsw6117698 2.3 10051436
20:00−11wsw389694 0.1 1008252
10 march, wed
wed1023:00−14ssw229797 0.1 100922
02:00−14se1194100 0.0 100720
05:00−13ne1294100 0.0 100622
08:00−13nne2396100 0.4 1005128
11:00−11nnw2392100 0.9 1005359
14:00−11nnw3590100 0.3 1006555
17:00−13n3591100 0.4 1007445
20:00−17n129898 0.2 101120
11 march, thu
thu1123:00−20wnw239999 0.6 1013124
02:00−24wsw1298100 0.1 101420
05:00−28wsw129677 0.1 101719
08:00−28sw229930 0.0 101924
11:00−21wsw369258 0.0 1018437
14:00−17w588699 0.0 1018703
17:00−18wsw5108999 0.0 1018679
20:00−21wsw41295100 0.1 1020629